Flag for U.S.A. Weather past 2 weeks in Albuquerque, New Mexico, U.S.A.

Now
88 °F

Scattered clouds.


Feels Like: 85 °F
Forecast: 60 / 87 °F
Wind: 9 mph from Northwest

Location: Albuquerque International Airport

Current Time: Aug 3, 2015 at 5:30:04 PM

Latest Report: Aug 3, 2015 at 4:52 PM


Visibility: 10 mi

Pressure: 29.82 "Hg (25.17 "Hg at 1510m altitude)

Humidity: 21%

Dew point: 43 °F

Location of AlbuquerqueLocation

Historic Weather in Albuquerque — Graph

°F

Albuquerque temperature yesterday

Maximum temperature yesterday: 82 °F (at 1:52 PM)
Minimum temperature yesterday: 66 °F (at 12:52 AM)
Average temperature yesterday: 73 °F

Past Weeks' High & Low Weather Summary

 TemperatureHumidityPressure
High94 °F (Jul 25, 4:52 PM)87% (Jul 20, 6:52 AM)30.36 "Hg (Jul 20, 6:52 AM)
Low64 °F (Jul 20, 5:52 AM)14% (Jul 22, 3:52 PM)29.71 "Hg (Jul 26, 5:52 PM)
Average77 °F49%29.93 "Hg
* Reported Jul 19 3:52 PM — Aug 3 3:52 PM, Albuquerque, Weather by CustomWeather, © 2015

Note: Actual official high and low records may vary slightly from our data, if they occured in-between our weather recording intervals... More about our weather records

Advertising

Albuquerque weather history for previous 24 hours

 ConditionsComfort  
Time TempWeatherWind HumidityBarometerVisibility
3:52 PM
Mon, Aug 3
89 °FScattered clouds.16 mph22%29.83 "Hg10 mi
2:52 PM87 °FScattered clouds.N/A24%29.87 "Hg10 mi
1:52 PM84 °FPassing clouds.10 mph32%29.90 "Hg10 mi
12:52 PM82 °FPassing clouds.12 mph38%29.92 "Hg10 mi
11:52 AM79 °FPassing clouds.6 mph44%29.94 "Hg10 mi
10:52 AM75 °FPassing clouds.5 mph54%29.95 "Hg10 mi
9:52 AM72 °FPassing clouds.No wind64%29.96 "Hg10 mi
8:52 AM69 °FPassing clouds.No wind70%29.96 "Hg10 mi
7:52 AM66 °FPassing clouds.3 mph81%29.96 "Hg10 mi
6:52 AM65 °FPassing clouds.3 mph81%29.95 "Hg10 mi
5:52 AM65 °FPassing clouds.No wind81%29.93 "Hg10 mi
4:52 AM65 °FPassing clouds.5 mph81%29.90 "Hg10 mi
3:52 AM65 °FPassing clouds.13 mph85%29.90 "Hg10 mi
2:52 AM67 °FPassing clouds.10 mph76%29.88 "Hg10 mi
1:52 AM67 °FLight rain. Overcast.10 mph85%29.93 "Hg10 mi
12:52 AM72 °FOvercast.6 mph59%29.93 "Hg10 mi
11:52 PM
Sun, Aug 2
71 °FLight rain. Overcast.7 mph63%29.92 "Hg10 mi
10:52 PM73 °FOvercast.No wind53%29.89 "Hg10 mi
9:52 PM73 °FPassing clouds.No wind53%29.89 "Hg10 mi
8:52 PM74 °FPartly sunny.5 mph50%29.88 "Hg10 mi
7:52 PM75 °FPartly sunny.8 mph48%29.87 "Hg10 mi
6:52 PM76 °FPartly sunny.13 mph45%29.87 "Hg10 mi
5:52 PM78 °FOvercast.17 mph45%29.88 "Hg10 mi
Weather by CustomWeather, © 2015

See weather overviewHow to use our weather pages